Other Public Products
Issued by NWS Charleston, SC

Current Version | Previous Version | Graphics & Text | Print | Product List | Glossary On
Versions: 1 2 3 4 5 6 7 8 9 10 11 12 13 14 15 16 17 18 19 20 21 22 23 24 25 26 27 28 29 30 31 32 33 34 35 36 37 38 39 40 41 42 43 44 45 46 47 48 49 50
000 FPUS82 KCHS 220526 OPUCHS TEST...KCHS/KSAV Gateway Observations...TEST National Weather Service Charleston SC 100 AM EDT FRI SEP 22 2017 NOTE: "fair" indicates few or no clouds below 12,000 feet with no significant weather and/or obstructions to visibility. SCZ050-WAZ558-NCZ071-TXZ119-213-PAZ071-DCZ001-FLZ074-172-MI076- NYZ176-178-MAZ016-IL014-TNZ027-NJZ106-GAZ044-MD014-220600- ...Gateway Observations for Charleston International... CITY SKY/WX TMP DP RH WIND PRES REMARKS Chas Airport PTCLDY 71 69 93 CALM 30.02F Seattle PTCLDY 55 45 68 CALM 30.00S Charlotte PTCLDY 74 67 78 E6 30.07S Dallas DFW CLEAR 80 71 74 S12 29.92R Dallas Love CLEAR 80 70 71 S13 29.93S Philladelphia CLOUDY 74 61 63 N7 30.03S Wash National CLOUDY 74 68 81 CALM 30.05S Baltimore MOCLDY 70 67 90 NW6 30.03S Miami MOCLDY 83 78 85 N3 29.91F HX 93 Detroit PTCLDY 72 67 84 SE3 30.08F Newark CLOUDY 72 62 71 N10 30.01S Laguardia CLOUDY 72 57 59 N12 30.00S J F K CLOUDY 72 52 49 N14G21 30.01S Boston Logan CLOUDY 63 54 72 NE29G35 30.04R Ft. Lauderdale PTCLDY 82 76 81 NE3 29.90F Chicago O`Hare MOCLDY 81 69 67 S5 30.01S Chicago Midway MOCLDY 83 69 62 S8 30.01S Houston Bush MOCLDY 76 74 93 SE5 29.95F Houston Hobby MOCLDY 79 75 87 SE5 29.95S Nashville CLEAR 73 71 93 CALM 30.06S Atlanta PTCLDY 74 65 73 NE7 30.04F $$ GAZ044-118-TXZ119-213-NCZ071-DCZ001-MDZ014-506-PAZ021-071-NJZ106- NYZ176-178-MAZ106-OHZ011-021-055-MIZ076-KYZ091-ILZ014-INZ047- MNZ060-ONZ431-220600- ...Gateway Observations for Savannah International... CITY SKY/WX TMP DP RH WIND PRES REMARKS Savannah Arpt PTCLDY 73 71 93 N3 30.01F Atlanta PTCLDY 74 65 73 NE7 30.04F Charlotte PTCLDY 74 67 78 E6 30.07S Dallas DFW CLEAR 80 71 74 S12 29.92R Houston Bush MOCLDY 76 74 93 SE5 29.95F Wash National CLOUDY 74 68 81 CALM 30.05S Wash Dulles MOCLDY 68 65 90 NW3 30.06S Baltimore MOCLDY 70 67 90 NW6 30.03S Philadelphia CLOUDY 74 61 63 N7 30.03S Newark CLOUDY 72 62 71 N10 30.01S Laguardia CLOUDY 72 57 59 N12 30.00S J F K CLOUDY 72 52 49 N14G21 30.01S Boston CLOUDY 63 54 72 NE29G35 30.04R Pittsburg CLEAR 68 64 87 CALM 30.11S Akron CLEAR 71 62 73 E7 30.11S Cleveland PTCLDY 70 63 78 CALM 30.11S Cincinnati CLEAR 76 70 82 SE3 30.08S Columbus CLEAR 69 67 94 CALM 30.08F Detroit PTCLDY 72 67 84 SE3 30.08F Chicago O`Hare MOCLDY 81 69 67 S5 30.01S Minneapolis PTCLDY 76 69 79 SE10 29.84R Indianapolis PTCLDY 76 68 76 CALM 30.07R Toronto Canada PTCLDY 70 61 73 CALM 30.12F $$

USA.gov is the U.S. government's official web portal to all federal, state and local government web resources and services.